QPF
0.05 0.10 0.17 0.10 0.09 0.06 0.08 0.10 0.10 0.09 0.08 0.08 0.06 0.04 0.03 0.02 0.02 0.03 0.03 0.04 0.04 0.04 0.06 0.06 0.06 0.06 0.06 0.05 0.03 0.03 0.04 0.03 0.03 0.03 0.03 0.05 0.07 0.07 0.07 0.07 0.05 0.02 0.03
0.03 0.05 0.11 0.08 0.08 0.07 0.07 0.07 0.07 0.07 0.07 0.06 0.05 0.04 0.04 0.03 0.03 0.04 0.05 0.03 0.04 0.03 0.04 0.06 0.05 0.05 0.05 0.05 0.04 0.03 0.05 0.03 0.02 0.04 0.05 0.06 0.08 0.09 0.07 0.06 0.05 0.05 0.04
0.03 0.03 0.06 0.06 0.07 0.06 0.06 0.05 0.05 0.06 0.06 0.05 0.04 0.03 0.03 0.03 0.03 0.03 0.03 0.03 0.03 0.03 0.04 0.05 0.04 0.04 0.04 0.04 0.03 0.04 0.05 0.04 0.04 0.05 0.05 0.04 0.05 0.07 0.07 0.06 0.05 0.06 0.06
0.01 0.02 0.04 0.05 0.04 0.04 0.06 0.06 0.04 0.05 0.05 0.04 0.03 0.03 0.03 0.03 0.03 0.02 0.03 0.03 0.03 0.02 0.03 0.04 0.04 0.04 0.04 0.04 0.03 0.03 0.04 0.04 0.04 0.05 0.03 0.02 0.03 0.05 0.07 0.07 0.06 0.05 0.06
0.01 0.01 0.03 0.05 0.04 0.05 0.06 0.06 0.05 0.03 0.03 0.03 0.03 0.02 0.03 0.04 0.03 0.02 0.02 0.03 0.02 0.02 0.03 0.04 0.04 0.04 0.04 0.04 0.04 0.03 0.04 0.05 0.05 0.04 0.01 0.01 0.02 0.04 0.08 0.10 0.08 0.07 0.06
0.01 0.02 0.04 0.05 0.05 0.05 0.05 0.05 0.05 0.04 0.03 0.03 0.02 0.03 0.03 0.03 0.03 0.02 0.02 0.03 0.02 0.02 0.02 0.03 0.04 0.04 0.03 0.04 0.05 0.05 0.05 0.06 0.05 0.02 0.01 0.01 0.02 0.04 0.08 0.11 0.10 0.08 0.07
0.03 0.03 0.04 0.04 0.03 0.04 0.04 0.04 0.04 0.04 0.05 0.04 0.04 0.04 0.03 0.02 0.02 0.02 0.02 0.03 0.02 0.02 0.03 0.03 0.04 0.04 0.03 0.03 0.05 0.05 0.06 0.07 0.04 0.01 0.00 0.01 0.01 0.04 0.08 0.11 0.10 0.09 0.08
0.05 0.03 0.04 0.05 0.05 0.05 0.05 0.04 0.04 0.04 0.05 0.05 0.05 0.04 0.02 0.02 0.02 0.02 0.02 0.04 0.03 0.03 0.04 0.05 0.06 0.08 0.07 0.06 0.06 0.07 0.08 0.08 0.02 0.01 0.00 0.01 0.02 0.05 0.07 0.09 0.10 0.09 0.09
0.08 0.04 0.04 0.07 0.07 0.08 0.08 0.07 0.06 0.05 0.05 0.06 0.05 0.05 0.04 0.03 0.03 0.03 0.04 0.04 0.04 0.05 0.06 0.07 0.06 0.07 0.04 0.05 0.05 0.06 0.08 0.09 0.03 0.01 0.01 0.01 0.02 0.05 0.07 0.08 0.08 0.08 0.10
0.11 0.07 0.06 0.06 0.06 0.08 0.09 0.10 0.07 0.06 0.06 0.07 0.06 0.06 0.07 0.06 0.05 0.05 0.05 0.05 0.06 0.06 0.06 0.07 0.07 0.07 0.04 0.05 0.06 0.06 0.08 0.09 0.05 0.02 0.01 0.02 0.03 0.05 0.07 0.08 0.08 0.07 0.08
0.06 0.07 0.07 0.06 0.04 0.06 0.07 0.08 0.07 0.06 0.06 0.06 0.06 0.08 0.10 0.06 0.04 0.04 0.04 0.06 0.07 0.06 0.07 0.09 0.08 0.08 0.06 0.06 0.07 0.07 0.08 0.04 0.03 0.02 0.02 0.03 0.05 0.05 0.06 0.07 0.07 0.08 0.07
0.03 0.06 0.07 0.07 0.05 0.04 0.02 0.05 0.06 0.05 0.04 0.06 0.07 0.07 0.07 0.03 0.02 0.02 0.03 0.07 0.09 0.09 0.10 0.12 0.11 0.11 0.09 0.07 0.08 0.09 0.06 0.03 0.03 0.02 0.02 0.04 0.05 0.07 0.07 0.08 0.06 0.06 0.07
0.03 0.03 0.02 0.02 0.02 0.02 0.03 0.03 0.05 0.07 0.05 0.04 0.07 0.09 0.08 0.04 0.02 0.01 0.01 0.03 0.06 0.08 0.09 0.11 0.12 0.10 0.07 0.07 0.09 0.08 0.08 0.05 0.03 0.02 0.03 0.04 0.04 0.06 0.07 0.07 0.07 0.06 0.06
0.02 0.02 0.01 0.01 0.01 0.02 0.03 0.04 0.06 0.06 0.06 0.04 0.04 0.03 0.03 0.02 0.02 0.01 0.01 0.02 0.06 0.08 0.07 0.08 0.08 0.06 0.04 0.05 0.06 0.07 0.08 0.06 0.04 0.03 0.02 0.04 0.04 0.05 0.06 0.07 0.07 0.07 0.07
0.01 0.01 0.01 0.00 0.00 0.01 0.03 0.05 0.08 0.10 0.08 0.04 0.04 0.05 0.03 0.03 0.04 0.03 0.03 0.07 0.13 0.11 0.07 0.05 0.04 0.04 0.03 0.04 0.05 0.05 0.05 0.04 0.04 0.04 0.03 0.04 0.05 0.05 0.07 0.08 0.08 0.09 0.09
0.01 0.01 0.01 0.01 0.01 0.01 0.03 0.06 0.10 0.13 0.09 0.04 0.04 0.05 0.04 0.03 0.04 0.04 0.03 0.08 0.11 0.09 0.06 0.04 0.03 0.03 0.03 0.02 0.03 0.03 0.03 0.03 0.02 0.02 0.03 0.03 0.04 0.04 0.06 0.08 0.09 0.10 0.11
0.01 0.01 0.02 0.02 0.02 0.01 0.02 0.05 0.08 0.08 0.07 0.04 0.03 0.04 0.03 0.03 0.03 0.02 0.02 0.03 0.04 0.05 0.05 0.05 0.05 0.03 0.03 0.03 0.04 0.04 0.03 0.02 0.02 0.02 0.02 0.02 0.03 0.05 0.06 0.07 0.08 0.08 0.09
0.01 0.01 0.02 0.02 0.02 0.01 0.02 0.04 0.04 0.03 0.03 0.04 0.03 0.03 0.04 0.03 0.02 0.02 0.03 0.02 0.02 0.02 0.02 0.03 0.04 0.03 0.03 0.02 0.02 0.03 0.04 0.03 0.03 0.02 0.02 0.02 0.02 0.03 0.05 0.07 0.08 0.09 0.09
0.01 0.01 0.01 0.01 0.01 0.02 0.03 0.03 0.03 0.04 0.04 0.03 0.02 0.03 0.04 0.03 0.02 0.02 0.02 0.02 0.01 0.02 0.02 0.02 0.02 0.03 0.04 0.04 0.04 0.05 0.04 0.03 0.03 0.02 0.02 0.03 0.02 0.03 0.05 0.07 0.10 0.10 0.10
0.01 0.01 0.01 0.01 0.01 0.02 0.03 0.03 0.03 0.03 0.02 0.02 0.02 0.03 0.04 0.02 0.02 0.02 0.01 0.01 0.01 0.01 0.02 0.02 0.02 0.06 0.11 0.11 0.09 0.07 0.06 0.05 0.04 0.04 0.03 0.03 0.03 0.05 0.07 0.09 0.09 0.09 0.12
0.01 0.01 0.01 0.01 0.01 0.02 0.02 0.02 0.03 0.02 0.02 0.02 0.02 0.03 0.03 0.03 0.03 0.02 0.01 0.01 0.01 0.02 0.02 0.02 0.02 0.03 0.11 0.14 0.13 0.10 0.07 0.05 0.04 0.04 0.05 0.05 0.04 0.05 0.06 0.08 0.08 0.06 0.07
0.01 0.01 0.01 0.01 0.01 0.01 0.02 0.02 0.03 0.02 0.02 0.02 0.02 0.02 0.02 0.02 0.03 0.04 0.03 0.03 0.04 0.03 0.02 0.02 0.03 0.02 0.03 0.05 0.07 0.08 0.07 0.05 0.03 0.04 0.05 0.04 0.04 0.05 0.05 0.05 0.05 0.06 0.05
0.01 0.01 0.02 0.03 0.02 0.02 0.03 0.03 0.03 0.03 0.03 0.02 0.02 0.02 0.02 0.03 0.06 0.07 0.06 0.05 0.05 0.03 0.04 0.05 0.05 0.04 0.03 0.04 0.04 0.05 0.05 0.04 0.04 0.04 0.04 0.03 0.03 0.03 0.02 0.02 0.04 0.06 0.08
0.01 0.02 0.02 0.02 0.02 0.03 0.05 0.05 0.04 0.04 0.04 0.03 0.03 0.04 0.04 0.05 0.05 0.04 0.05 0.06 0.05 0.04 0.05 0.05 0.04 0.04 0.04 0.05 0.04 0.04 0.05 0.04 0.05 0.04 0.03 0.03 0.03 0.03 0.02 0.02 0.02 0.05 0.07
0.02 0.02 0.03 0.03 0.03 0.03 0.05 0.07 0.06 0.06 0.05 0.05 0.05 0.06 0.05 0.04 0.04 0.04 0.05 0.06 0.06 0.06 0.06 0.07 0.07 0.06 0.05 0.05 0.04 0.04 0.03 0.04 0.04 0.05 0.04 0.02 0.02 0.02 0.03 0.03 0.04 0.06 0.06
0.03 0.04 0.04 0.04 0.04 0.05 0.08 0.09 0.09 0.10 0.10 0.09 0.09 0.07 0.04 0.04 0.04 0.03 0.04 0.05 0.06 0.06 0.08 0.15 0.10 0.07 0.05 0.05 0.05 0.04 0.04 0.04 0.04 0.04 0.04 0.03 0.02 0.02 0.03 0.04 0.05 0.08 0.07
MSLP
1002.73 1001.75 1001.16 1001.00 1001.19 1001.61 1002.12 1002.59 1002.94 1003.13 1003.20 1003.23 1003.28 1003.42 1003.69 1004.06 1004.49 1004.94 1005.35 1005.69 1005.98 1006.24 1006.52 1006.85 1007.26 1007.74 1008.25 1008.76 1009.21 1009.60 1009.91 1010.17 1010.41 1010.68 1010.98 1011.33 1011.71 1012.09 1012.44 1012.72 1012.95 1013.12 1013.26
1002.57 1001.64 1001.09 1000.96 1001.17 1001.58 1002.07 1002.51 1002.82 1002.99 1003.05 1003.07 1003.15 1003.33 1003.64 1004.04 1004.50 1004.95 1005.35 1005.67 1005.93 1006.16 1006.42 1006.75 1007.15 1007.62 1008.13 1008.63 1009.07 1009.44 1009.73 1009.98 1010.21 1010.48 1010.79 1011.15 1011.54 1011.94 1012.30 1012.61 1012.86 1013.06 1013.24
1002.36 1001.52 1001.05 1000.97 1001.19 1001.61 1002.07 1002.46 1002.72 1002.84 1002.86 1002.88 1002.96 1003.16 1003.49 1003.92 1004.39 1004.85 1005.24 1005.55 1005.78 1006.00 1006.24 1006.54 1006.92 1007.38 1007.88 1008.36 1008.80 1009.17 1009.47 1009.73 1009.98 1010.26 1010.59 1010.97 1011.38 1011.78 1012.16 1012.48 1012.75 1012.98 1013.20
1002.20 1001.45 1001.07 1001.04 1001.29 1001.68 1002.09 1002.40 1002.58 1002.61 1002.57 1002.54 1002.60 1002.79 1003.14 1003.60 1004.10 1004.58 1004.99 1005.30 1005.54 1005.75 1005.98 1006.26 1006.63 1007.07 1007.55 1008.02 1008.46 1008.84 1009.17 1009.46 1009.75 1010.06 1010.42 1010.82 1011.23 1011.64 1012.01 1012.34 1012.61 1012.86 1013.11
1002.15 1001.51 1001.20 1001.21 1001.44 1001.78 1002.09 1002.28 1002.32 1002.22 1002.07 1001.96 1001.98 1002.17 1002.53 1003.03 1003.58 1004.12 1004.58 1004.94 1005.22 1005.45 1005.68 1005.97 1006.32 1006.74 1007.20 1007.67 1008.11 1008.50 1008.86 1009.19 1009.53 1009.88 1010.27 1010.69 1011.10 1011.50 1011.85 1012.16 1012.43 1012.69 1012.95
1002.30 1001.73 1001.46 1001.47 1001.65 1001.88 1002.03 1002.04 1001.89 1001.63 1001.34 1001.13 1001.09 1001.27 1001.67 1002.23 1002.86 1003.50 1004.05 1004.50 1004.85 1005.14 1005.41 1005.70 1006.05 1006.45 1006.89 1007.35 1007.79 1008.20 1008.58 1008.95 1009.32 1009.72 1010.13 1010.55 1010.96 1011.33 1011.66 1011.94 1012.19 1012.43 1012.70
1002.65 1002.13 1001.87 1001.83 1001.90 1001.97 1001.92 1001.70 1001.33 1000.86 1000.41 1000.10 1000.01 1000.20 1000.64 1001.28 1002.03 1002.78 1003.47 1004.04 1004.49 1004.85 1005.17 1005.49 1005.84 1006.23 1006.66 1007.09 1007.52 1007.93 1008.33 1008.73 1009.13 1009.54 1009.96 1010.38 1010.77 1011.11 1011.40 1011.64 1011.86 1012.09 1012.34
1003.20 1002.70 1002.42 1002.29 1002.21 1002.07 1001.78 1001.31 1000.70 1000.03 999.42 999.01 998.89 999.09 999.59 1000.33 1001.20 1002.09 1002.91 1003.60 1004.16 1004.61 1004.99 1005.35 1005.70 1006.08 1006.49 1006.89 1007.30 1007.70 1008.10 1008.50 1008.90 1009.31 1009.73 1010.13 1010.50 1010.81 1011.06 1011.27 1011.46 1011.66 1011.91
1003.88 1003.39 1003.06 1002.82 1002.58 1002.22 1001.69 1000.98 1000.15 999.30 998.56 998.08 997.94 998.16 998.73 999.56 1000.53 1001.53 1002.46 1003.26 1003.91 1004.43 1004.86 1005.23 1005.59 1005.96 1006.33 1006.72 1007.10 1007.47 1007.84 1008.22 1008.61 1009.01 1009.41 1009.79 1010.12 1010.41 1010.64 1010.83 1011.00 1011.19 1011.42
1004.61 1004.13 1003.76 1003.42 1003.02 1002.47 1001.74 1000.83 999.82 998.84 998.02 997.50 997.35 997.61 998.22 999.11 1000.14 1001.21 1002.19 1003.04 1003.73 1004.28 1004.73 1005.11 1005.46 1005.81 1006.15 1006.50 1006.85 1007.19 1007.53 1007.88 1008.24 1008.61 1008.98 1009.34 1009.66 1009.93 1010.16 1010.35 1010.52 1010.70 1010.94
1005.32 1004.86 1004.47 1004.06 1003.55 1002.87 1001.99 1000.95 999.84 998.79 997.93 997.41 997.27 997.55 998.18 999.08 1000.12 1001.17 1002.14 1002.97 1003.63 1004.16 1004.58 1004.93 1005.25 1005.57 1005.89 1006.21 1006.52 1006.83 1007.14 1007.45 1007.78 1008.12 1008.47 1008.81 1009.12 1009.40 1009.65 1009.85 1010.05 1010.25 1010.49
1005.95 1005.54 1005.16 1004.73 1004.17 1003.42 1002.48 1001.39 1000.26 999.20 998.36 997.86 997.75 998.02 998.64 999.49 1000.45 1001.42 1002.30 1003.02 1003.60 1004.04 1004.38 1004.67 1004.95 1005.23 1005.51 1005.80 1006.09 1006.38 1006.66 1006.94 1007.24 1007.55 1007.88 1008.22 1008.55 1008.85 1009.13 1009.38 1009.61 1009.84 1010.09
1006.47 1006.13 1005.80 1005.40 1004.84 1004.10 1003.18 1002.12 1001.03 1000.04 999.26 998.80 998.70 998.96 999.51 1000.26 1001.10 1001.91 1002.62 1003.19 1003.61 1003.91 1004.14 1004.34 1004.54 1004.77 1005.02 1005.28 1005.56 1005.83 1006.09 1006.36 1006.64 1006.95 1007.27 1007.62 1007.96 1008.31 1008.63 1008.93 1009.20 1009.46 1009.72
1006.89 1006.63 1006.37 1006.02 1005.53 1004.86 1004.01 1003.06 1002.08 1001.18 1000.49 1000.09 1000.00 1000.21 1000.67 1001.27 1001.93 1002.55 1003.05 1003.42 1003.66 1003.79 1003.88 1003.96 1004.07 1004.23 1004.43 1004.68 1004.94 1005.21 1005.48 1005.75 1006.03 1006.34 1006.67 1007.03 1007.40 1007.78 1008.15 1008.50 1008.81 1009.09 1009.35
1007.23 1007.05 1006.86 1006.59 1006.18 1005.61 1004.90 1004.08 1003.24 1002.47 1001.88 1001.52 1001.43 1001.58 1001.92 1002.37 1002.84 1003.24 1003.53 1003.69 1003.73 1003.69 1003.62 1003.57 1003.58 1003.67 1003.82 1004.04 1004.30 1004.58 1004.86 1005.15 1005.45 1005.76 1006.11 1006.48 1006.88 1007.29 1007.69 1008.06 1008.40 1008.68 1008.92
1007.55 1007.41 1007.27 1007.07 1006.75 1006.30 1005.72 1005.05 1004.36 1003.73 1003.23 1002.91 1002.80 1002.88 1003.10 1003.40 1003.68 1003.90 1004.00 1003.98 1003.84 1003.64 1003.43 1003.25 1003.15 1003.16 1003.26 1003.45 1003.70 1003.99 1004.29 1004.61 1004.93 1005.27 1005.62 1006.01 1006.42 1006.83 1007.24 1007.61 1007.93 1008.19 1008.39
1007.89 1007.76 1007.63 1007.47 1007.22 1006.87 1006.42 1005.90 1005.35 1004.83 1004.40 1004.11 1003.97 1003.98 1004.09 1004.26 1004.40 1004.48 1004.44 1004.28 1004.01 1003.69 1003.35 1003.06 1002.86 1002.78 1002.82 1002.97 1003.21 1003.51 1003.84 1004.18 1004.53 1004.88 1005.25 1005.63 1006.02 1006.42 1006.80 1007.14 1007.42 1007.62 1007.75
1008.30 1008.13 1007.98 1007.81 1007.60 1007.33 1006.98 1006.58 1006.14 1005.71 1005.34 1005.06 1004.89 1004.83 1004.86 1004.92 1004.97 1004.95 1004.83 1004.59 1004.26 1003.85 1003.43 1003.04 1002.75 1002.58 1002.56 1002.67 1002.89 1003.19 1003.54 1003.91 1004.28 1004.65 1005.01 1005.37 1005.72 1006.07 1006.39 1006.66 1006.87 1007.00 1007.05
1008.80 1008.55 1008.33 1008.13 1007.93 1007.70 1007.42 1007.10 1006.75 1006.39 1006.05 1005.77 1005.57 1005.46 1005.41 1005.41 1005.41 1005.35 1005.21 1004.95 1004.59 1004.15 1003.68 1003.23 1002.86 1002.62 1002.53 1002.59 1002.79 1003.09 1003.45 1003.84 1004.22 1004.59 1004.93 1005.24 1005.54 1005.81 1006.04 1006.23 1006.35 1006.39 1006.35
1009.40 1009.04 1008.73 1008.47 1008.24 1008.02 1007.79 1007.54 1007.25 1006.94 1006.62 1006.33 1006.10 1005.93 1005.84 1005.80 1005.78 1005.72 1005.59 1005.36 1005.02 1004.59 1004.10 1003.61 1003.19 1002.89 1002.74 1002.76 1002.93 1003.21 1003.58 1003.97 1004.35 1004.70 1005.00 1005.26 1005.48 1005.66 1005.79 1005.88 1005.91 1005.86 1005.74
1010.08 1009.61 1009.20 1008.86 1008.59 1008.36 1008.16 1007.95 1007.71 1007.43 1007.13 1006.83 1006.57 1006.37 1006.24 1006.17 1006.14 1006.11 1006.02 1005.84 1005.54 1005.14 1004.66 1004.16 1003.71 1003.36 1003.17 1003.14 1003.28 1003.55 1003.91 1004.29 1004.65 1004.97 1005.23 1005.42 1005.55 1005.63 1005.67 1005.66 1005.60 1005.47 1005.28
1010.81 1010.24 1009.73 1009.31 1009.00 1008.76 1008.57 1008.40 1008.20 1007.95 1007.66 1007.36 1007.07 1006.83 1006.67 1006.59 1006.56 1006.55 1006.50 1006.37 1006.13 1005.77 1005.32 1004.83 1004.37 1003.99 1003.77 1003.71 1003.82 1004.07 1004.40 1004.76 1005.09 1005.37 1005.56 1005.67 1005.72 1005.71 1005.66 1005.57 1005.44 1005.26 1005.02
1011.56 1010.92 1010.33 1009.84 1009.48 1009.23 1009.06 1008.92 1008.75 1008.54 1008.27 1007.97 1007.66 1007.40 1007.20 1007.09 1007.06 1007.05 1007.03 1006.94 1006.74 1006.43 1006.02 1005.55 1005.10 1004.72 1004.48 1004.40 1004.49 1004.70 1005.00 1005.32 1005.61 1005.82 1005.95 1005.99 1005.95 1005.87 1005.75 1005.61 1005.44 1005.23 1004.98
1012.31 1011.62 1010.98 1010.44 1010.05 1009.79 1009.63 1009.51 1009.38 1009.20 1008.96 1008.66 1008.35 1008.06 1007.83 1007.69 1007.63 1007.61 1007.59 1007.52 1007.35 1007.08 1006.70 1006.27 1005.84 1005.48 1005.23 1005.14 1005.20 1005.38 1005.63 1005.90 1006.13 1006.28 1006.33 1006.30 1006.20 1006.06 1005.90 1005.73 1005.55 1005.34 1005.10
1013.04 1012.33 1011.66 1011.09 1010.67 1010.40 1010.25 1010.15 1010.06 1009.92 1009.70 1009.42 1009.11 1008.80 1008.54 1008.36 1008.25 1008.20 1008.16 1008.08 1007.93 1007.68 1007.34 1006.95 1006.55 1006.21 1005.98 1005.87 1005.91 1006.04 1006.24 1006.44 1006.60 1006.68 1006.67 1006.58 1006.43 1006.25 1006.08 1005.90 1005.74 1005.56 1005.34
1013.74 1013.04 1012.36 1011.77 1011.33 1011.05 1010.89 1010.81 1010.74 1010.63 1010.45 1010.19 1009.88 1009.57 1009.28 1009.05 1008.90 1008.80 1008.72 1008.62 1008.47 1008.23 1007.92 1007.57 1007.21 1006.89 1006.67 1006.57 1006.57 1006.66 1006.80 1006.93 1007.01 1007.02 1006.95 1006.80 1006.62 1006.43 1006.26 1006.10 1005.97 1005.83 1005.65
Thickness
5780 5783 5782 5781 5780 5780 5779 5778 5777 5776 5775 5774 5773 5773 5772 5772 5771 5770 5769 5769 5768 5767 5767 5766 5766 5766 5765 5765 5764 5764 5763 5762 5762 5762 5761 5761 5760 5759 5758 5757 5757 5756 5756
5784 5783 5782 5781 5780 5779 5778 5776 5775 5775 5774 5773 5772 5772 5771 5770 5770 5769 5768 5768 5767 5766 5766 5765 5765 5765 5764 5763 5763 5763 5762 5761 5761 5761 5760 5760 5759 5758 5757 5756 5756 5755 5755
5785 5783 5782 5780 5779 5778 5777 5776 5774 5773 5772 5771 5771 5770 5769 5769 5768 5768 5767 5767 5766 5766 5765 5764 5764 5763 5763 5762 5762 5761 5761 5760 5760 5760 5759 5758 5758 5757 5756 5755 5755 5754 5754
5784 5782 5781 5780 5778 5777 5776 5775 5774 5772 5771 5770 5770 5769 5769 5768 5767 5767 5766 5766 5765 5765 5764 5763 5763 5763 5762 5761 5761 5760 5760 5760 5759 5758 5758 5757 5757 5756 5756 5755 5754 5753 5753
5783 5781 5780 5779 5778 5776 5775 5774 5773 5771 5770 5769 5769 5768 5767 5767 5766 5766 5766 5765 5764 5764 5763 5763 5762 5762 5761 5761 5760 5760 5760 5759 5758 5758 5757 5757 5756 5756 5755 5755 5754 5753 5752
5781 5780 5779 5778 5776 5775 5774 5773 5772 5771 5770 5769 5768 5767 5766 5766 5765 5765 5764 5764 5763 5763 5763 5762 5762 5761 5761 5760 5760 5759 5759 5759 5758 5757 5756 5756 5756 5755 5755 5754 5754 5753 5752
5780 5779 5778 5777 5776 5774 5773 5772 5771 5770 5769 5768 5767 5766 5766 5765 5764 5764 5763 5763 5762 5762 5762 5762 5761 5761 5760 5760 5759 5759 5758 5758 5758 5757 5756 5756 5755 5755 5755 5754 5753 5752 5751
5779 5778 5777 5776 5774 5773 5772 5771 5770 5769 5768 5767 5766 5766 5765 5764 5763 5763 5762 5762 5762 5761 5761 5761 5760 5760 5759 5759 5758 5758 5758 5758 5757 5756 5755 5755 5755 5755 5754 5754 5753 5752 5751
5778 5777 5775 5774 5772 5772 5771 5770 5769 5768 5767 5767 5766 5765 5764 5763 5762 5762 5761 5761 5761 5761 5761 5760 5760 5759 5759 5759 5758 5758 5758 5757 5756 5755 5755 5755 5754 5754 5754 5753 5753 5752 5751
5776 5775 5774 5772 5771 5770 5769 5768 5767 5767 5766 5766 5766 5765 5763 5762 5761 5761 5761 5761 5760 5760 5760 5760 5760 5759 5759 5759 5758 5758 5757 5757 5756 5755 5754 5754 5754 5754 5754 5753 5752 5752 5751
5773 5773 5772 5771 5770 5769 5768 5767 5766 5765 5765 5765 5765 5764 5762 5761 5760 5760 5760 5760 5759 5759 5759 5759 5759 5759 5759 5758 5758 5757 5757 5756 5755 5754 5753 5754 5754 5754 5753 5753 5752 5751 5751
5769 5770 5770 5769 5768 5768 5767 5766 5765 5764 5763 5763 5762 5761 5760 5759 5759 5758 5758 5758 5758 5758 5758 5758 5758 5758 5758 5758 5757 5756 5755 5755 5754 5754 5753 5753 5753 5753 5753 5752 5752 5751 5750
5770 5769 5769 5768 5767 5766 5765 5765 5763 5762 5761 5761 5760 5759 5758 5757 5757 5757 5757 5757 5756 5756 5756 5756 5756 5756 5757 5756 5756 5755 5754 5754 5753 5753 5753 5753 5753 5753 5752 5752 5751 5750 5750
5770 5769 5769 5768 5767 5766 5764 5763 5761 5760 5759 5758 5758 5757 5756 5755 5755 5754 5754 5754 5754 5754 5754 5754 5754 5755 5754 5754 5754 5754 5753 5753 5752 5752 5752 5753 5752 5752 5751 5751 5750 5750 5749
5770 5769 5769 5768 5766 5765 5763 5761 5759 5758 5757 5756 5756 5756 5755 5754 5753 5753 5752 5752 5751 5752 5752 5752 5752 5752 5752 5752 5752 5752 5752 5752 5751 5751 5751 5751 5751 5751 5751 5750 5749 5749 5748
5771 5770 5770 5768 5766 5764 5762 5760 5758 5757 5756 5755 5754 5754 5754 5753 5752 5751 5750 5750 5750 5750 5750 5750 5750 5750 5750 5750 5750 5751 5751 5751 5750 5750 5750 5750 5750 5750 5750 5749 5749 5749 5748
5772 5771 5769 5768 5766 5764 5762 5760 5758 5756 5755 5754 5753 5753 5752 5751 5750 5749 5749 5748 5748 5748 5748 5748 5747 5747 5748 5748 5748 5748 5748 5749 5749 5749 5748 5748 5748 5748 5748 5748 5748 5748 5747
5774 5771 5770 5769 5766 5763 5762 5759 5757 5756 5754 5753 5752 5751 5750 5749 5749 5748 5747 5747 5747 5746 5746 5745 5744 5744 5744 5744 5744 5745 5746 5746 5747 5747 5746 5746 5746 5746 5746 5746 5746 5746 5746
5775 5773 5770 5768 5765 5763 5761 5759 5756 5755 5753 5751 5750 5749 5748 5748 5747 5746 5745 5745 5744 5744 5743 5743 5741 5741 5740 5740 5740 5741 5742 5743 5744 5744 5744 5743 5743 5744 5744 5744 5744 5744 5744
5776 5774 5771 5768 5766 5763 5760 5757 5754 5752 5751 5750 5748 5747 5747 5746 5746 5745 5743 5742 5742 5741 5739 5738 5737 5737 5737 5736 5737 5737 5738 5739 5740 5740 5741 5741 5741 5741 5741 5741 5741 5741 5742
5774 5772 5769 5767 5765 5762 5757 5753 5750 5748 5748 5747 5747 5746 5745 5744 5743 5742 5741 5740 5739 5738 5736 5735 5733 5733 5732 5733 5731 5731 5733 5735 5736 5737 5737 5738 5738 5738 5738 5738 5738 5738 5739
5774 5771 5769 5766 5764 5761 5758 5755 5752 5749 5747 5746 5745 5744 5743 5742 5741 5740 5738 5737 5736 5735 5733 5732 5731 5729 5728 5729 5726 5724 5723 5725 5729 5733 5733 5734 5734 5735 5735 5735 5735 5735 5736
5774 5772 5770 5767 5764 5761 5758 5755 5751 5747 5745 5743 5742 5741 5741 5740 5739 5737 5736 5735 5734 5732 5730 5729 5728 5726 5724 5724 5724 5722 5717 5716 5719 5724 5726 5728 5729 5730 5731 5731 5732 5732 5732
5775 5773 5770 5767 5763 5761 5758 5753 5749 5744 5740 5739 5739 5739 5738 5737 5736 5735 5734 5733 5731 5729 5727 5726 5725 5724 5722 5720 5720 5720 5719 5719 5715 5714 5719 5722 5724 5725 5726 5727 5727 5727 5728
5776 5772 5769 5765 5762 5759 5756 5753 5748 5744 5741 5739 5738 5736 5735 5734 5733 5732 5731 5730 5728 5726 5724 5723 5722 5721 5720 5718 5717 5716 5715 5714 5714 5711 5710 5713 5716 5719 5720 5721 5721 5723 5723
5775 5772 5768 5763 5760 5758 5754 5751 5747 5743 5740 5737 5735 5732 5731 5731 5730 5729 5728 5726 5725 5723 5721 5720 5718 5717 5717 5716 5715 5714 5712 5711 5710 5709 5707 5707 5708 5712 5715 5716 5717 5718 5719